Regional Weather Roundup
Issued by NWS Upton, NY

Current Version | Previous Version | Text Only | Print | Product List | Glossary On
Versions: 1 2 3 4 5 6 7 8 9 10 11 12 13 14 15 16 17 18 19 20 21 22 23 24 25 26 27 28 29 30 31 32 33 34 35 36 37 38 39 40 41 42 43 44 45 46 47 48 49 50
000
ASUS41 KOKX 140208
RWROKX

REGIONAL WEATHER ROUNDUP
NATIONAL WEATHER SERVICE NEW YORK NY
900 PM EST WED DEC 13 2017

NOTE: "FAIR" INDICATES FEW OR NO CLOUDS BELOW 12,000 FEET WITH NO
SIGNIFICANT WEATHER AND/OR OBSTRUCTIONS TO VISIBILITY.

NYZ071-072-176-178-NJZ106-104-140300-
NEW YORK CITY METRO AREA

CITY           SKY/WX    TMP DP  RH WIND       PRES   REMARKS
Central Park   CLOUDY    27   7  42 VRB5      29.68F WCI  22
Bronx Bot Gard   N/A     28   7  40 W17       29.65S WCI  16
Bronx Lehman C NOT AVBL
LaGuardia APRT CLOUDY    28   7  41 W17G24    29.66F WCI  16
Queens College NOT AVBL
Kennedy INTL   CLOUDY    28   8  43 W18G29    29.69F WCI  15
Breezy Point     N/A    N/A N/A N/A W14G23      N/A
Brooklyn Coll  NOT AVBL
Staten Island  NOT AVBL
Newark/Liberty CLOUDY    27   5  39 W13G21    29.68F WCI  16
Teterboro      CLOUDY    27   7  42 W12       29.66F WCI  17
$$

NYZ177-179-078>081-140300-
LONG ISLAND NEW YORK

CITY           SKY/WX    TMP DP  RH WIND       PRES   REMARKS
Jones Beach      N/A    N/A N/A N/A W17G25      N/A
Wantagh        NOT AVBL
Matinecock PT    N/A    N/A N/A N/A W20         N/A
Farmingdale    CLOUDY    27   7  42 W12       29.66F WCI  17
MacArthur/ISP  CLOUDY    28   8  43 W13       29.64F WCI  17
Shirley        MOCLDY    28   9  44 W9        29.65F WCI  19
Mt Sinai Harb    N/A    N/A N/A N/A W10G18      N/A
Westhampton    CLOUDY    26   7  44 W8        29.65F WCI  18
East Hampton   FAIR      27   9  46 W7        29.62F WCI  20
Southold       NOT AVBL
Montauk          N/A     32  13  45 W21G32    29.62R WCI  20
$$

NYZ052-065-067-140300-
HUDSON VALLEY

CITY           SKY/WX    TMP DP  RH WIND       PRES   REMARKS
White Plains   CLOUDY    25   4  40 W9G21     29.61F WCI  15
Larchmont Harb   N/A    N/A N/A N/A W13         N/A
Croton On Huds   N/A    N/A N/A N/A W13         N/A
Somers         NOT AVBL
Brewster       NOT AVBL
Newburgh       PTCLDY    21   9  58 W17       29.63F WCI   7
Montgomery     CLOUDY    22   5  48 SW6       29.62F WCI  14
Otisville      NOT AVBL
Warwick        NOT AVBL
Suffern        NOT AVBL
Poughkeepsie   CLOUDY    23   4  44 W9        29.64R WCI  13
Albany         MOCLDY    19   6  57 W9        29.59S WCI   8
$$

NJZ001-105-106-008-010-013-015-019>022-104-140300-
NEW JERSEY

CITY           SKY/WX    TMP DP  RH WIND       PRES   REMARKS
Newark/Liberty CLOUDY    27   5  39 W13G21    29.68F WCI  16
Teterboro      CLOUDY    27   7  42 W12       29.66F WCI  17
Caldwell       CLOUDY    25   5  42 W13       29.66F WCI  14
Somerville     CLOUDY    25   7  46 CALM      29.67S
Linden         MOCLDY    27   4  38 W10G16    29.68S WCI  17
Perth Amboy      N/A    N/A N/A N/A W12         N/A
Sussex         CLOUDY    23   7  50 CALM      29.63F
Andover        NOT AVBL
Trenton        CLOUDY    26   7  44 VRB3      29.68F
Millville      CLOUDY    29  12  49 SW8       29.73S WCI  21
Atlantic City  CLOUDY    29   8  41 SW6       29.72F WCI  23
Wrightstown    PTCLDY    25   9  50 CALM      29.67F
Toms River     CLOUDY    25   9  50 W3        29.71F
Belmar         CLOUDY    25   8  48 SW6       29.70S WCI  18
$$

PAZ047>061-062-071-140300-
EASTERN PENNSYLVANIA

CITY           SKY/WX    TMP DP  RH WIND       PRES   REMARKS
Philadelphia   CLOUDY    30   8  39 SW7       29.70F WCI  23
Allentown      CLOUDY    25   8  48 CALM      29.65F
Scranton       CLOUDY    21   7  54 SW8       29.60F WCI  11
$$

CTZ002-004>006-009-010-012-RIZ004-006-007-MAZ004-011-015-140300-
SOUTHERN NEW ENGLAND
 IN CT

CITY           SKY/WX    TMP DP  RH WIND       PRES   REMARKS
Bradley INTL   PTCLDY    18   6  59 W8        29.60S WCI   8
Hartford       CLEAR     24   5  44 W8        29.62R WCI  15
Danbury        CLOUDY    24   4  42 W9        29.62S WCI  14
Wtrbury/Oxford CLEAR     21   5  50 W10       29.59S WCI  10
Norwalk Harbor   N/A    N/A N/A N/A W13         N/A
Bridgeport     PTCLDY    27   6  41 W10       29.64F WCI  17
Meriden        CLEAR     24   3  40 W14G22    29.62R WCI  12
New Haven      CLEAR     27   7  42 W13       29.63F WCI  16
Chester        FAIR      23   1  39 W8G15     29.59R WCI  14
Groton         CLEAR     26   4  38 W18G26    29.61R WCI  13
Wilimantic     CLEAR     23   6  48 W8        29.60R WCI  14

 IN RI

CITY           SKY/WX    TMP DP  RH WIND       PRES   REMARKS
Providence     PTCLDY    24   7  48 W15G22    29.58R WCI  11
Block Island   PTCLDY    30  15  53 W25G35    29.60R WCI  16
Westerly       CLEAR     26   5  40 W8        29.61R WCI  18
 IN MA

CITY           SKY/WX    TMP DP  RH WIND       PRES   REMARKS
Boston         CLEAR     23   9  55 W21G32    29.52R WCI   8
Worcester      CLEAR     16   5  62 W18G32    29.46R WCI   0
Westfield      CLEAR     19   6  57 W12       29.58S WCI   7
Provincetown   PTCLDY    25  14  63 W30G37    29.51  WCI   8
Nantucket      CLEAR     29  16  58 W28G38    29.56R WCI  14
$$

ANZ330-335-338-340-345-350-353-355-140300-
COASTAL MARINE OBSERVATIONS


STATION/POSITION TIME  SKY/WX   TEMP    WIND        PRES    VSBY  WAVE
                                AIR SEA DIR/SP/G                  HT/PER
                 (UTC)          (F)     (DEG/KT/KT) (MB)    (MI)  (FT/S)
NY HARB ENTRANCE 0050            31 52  260/ 23/ 29 1004.6          4/ 4
20 S FIRE ISLAND 0050            32 51  280/ 25/ 31 1004.5          8/ 7
GREAT SOUTH BAY  0115            30 45  270/ 17/ 23   N/A
HUDSON CANYON    0050            36 56  280/ 25/ 33 1004.7         10/ 8
KINGS POINT      0130            28 42  320/ 19/ 25 1005.1
EXECUTION ROCKS  0130            30     250/ 17/ 23   N/A
WESTERN LI SOUND NOT AVBL
CENTRAL LI SOUND 0100            31     270/ 23/ 33   N/A           6
ROBBINS REEF     0130            27     270/ 17/ 23 1005.3
$$


>>>>>>>>>>>>>>>>>>>>>>>>>>>> KEY <<<<<<<<<<<<<<<<<<<<<<<<<<<
>                                                          <
>     SKY/WX - Sky Condition/Present Weather               <
>     TMP    - Temperature in Fahrenheit                   <
>     DP     - Dew Point in Fahrenheit                     <
>     RH     - Relative Humidity in Percent                <
>     WIND   - Direction (from) and Speed in MPH           <
>     PRES   - Mean Sea Level Pressure (inches of Hg)      <
>     WCI    - Wind Chill Index                            <
>     VSB    - VISIBILITY IN MILES                         <
>     HX     - HEAT INDEX                                  <
>     TC     - TEMPERATURE IN CELSIUS                      <
>     VRB    - VARIABLE WIND DIRECTION                     <
>                                                          <
>>>>>>>>>>>>>>>>>>>>>>>>>>>> KEY <<<<<<<<<<<<<<<<<<<<<<<<<<<



USA.gov is the U.S. government's official web portal to all federal, state and local government web resources and services.